| time (UTC) | temp C | wind direction | speed KPH | gust KPH | rain 1hr cm | rain 24hr cm | rain mn cm | humidity % | barometer mb |
| 20260505124518 | 15 | 94 | 0.0 | 3.2 | 0.00 | 0.84 | 0.84 | 98 | 971.1 |
| 20260505123015 | 15 | 87 | 0.0 | 1.6 | 0.00 | 0.84 | 0.84 | 98 | 970.9 |
| 20260505121516 | 15 | 32 | 0.0 | 3.2 | 0.00 | 0.84 | 0.84 | 98 | 970.8 |
| 20260505120014 | 15 | 28 | 0.0 | 8.0 | 0.00 | 0.84 | 0.84 | 97 | 970.6 |
| 20260505114513 | 15 | 321 | 0.0 | 12.9 | 0.00 | 0.84 | 0.84 | 98 | 970.5 |
| 20260505113012 | 15 | 13 | 0.0 | 0.0 | 0.00 | 0.84 | 0.84 | 97 | 969.9 |
| 20260505111511 | 15 | 323 | 0.0 | 6.4 | 0.03 | 0.84 | 0.84 | 97 | 969.8 |
| 20260505101506 | 15 | 243 | 1.6 | 6.4 | 0.08 | 0.81 | 0.81 | 97 | 970.3 |
| 20260505100006 | 15 | 172 | 3.2 | 9.7 | 0.20 | 0.81 | 0.81 | 97 | 969.8 |
| 20260505094502 | 15 | 169 | 4.8 | 8.0 | 0.30 | 0.81 | 0.81 | 96 | 969.9 |
| 20260505093003 | 15 | 257 | 1.6 | 8.0 | 0.41 | 0.79 | 0.79 | 96 | 970.6 |
| 20260505091500 | 15 | 271 | 0.0 | 0.0 | 0.53 | 0.71 | 0.71 | 96 | 971.3 |
| 20260505084557 | 15 | 296 | 1.6 | 9.7 | 0.48 | 0.51 | 0.51 | 94 | 971.0 |
| 20260505083108 | 15 | 305 | 1.6 | 6.4 | 0.38 | 0.38 | 0.38 | 93 | 970.6 |
| 20260505081557 | 16 | 292 | 1.6 | 4.8 | 0.20 | 0.20 | 0.20 | 92 | 971.2 |
| 20260505080052 | 16 | 298 | 1.6 | 6.4 | 0.10 | 0.10 | 0.10 | 89 | 970.7 |
| 20260505074549 | 16 | 285 | 0.0 | 4.8 | 0.03 | 0.03 | 0.03 | 85 | 970.8 |
| 20260505073045 | 17 | 248 | 3.2 | 6.4 | 0.00 | 0.00 | 0.00 | 78 | 970.6 |
| 20260505071544 | 17 | 170 | 0.0 | 3.2 | 0.00 | 0.00 | 0.00 | 77 | 970.3 |
| 20260505070049 | 17 | 202 | 1.6 | 8.0 | 0.00 | 0.00 | 0.00 | 77 | 970.4 |
| 20260505064554 | 17 | 148 | 1.6 | 6.4 | 0.00 | 0.00 | 0.00 | 76 | 970.6 |
| 20260505063038 | 17 | 144 | 3.2 | 6.4 | 0.00 | 0.00 | 0.00 | 76 | 970.8 |
| 20260505061540 | 17 | 131 | 0.0 | 4.8 | 0.00 | 0.00 | 0.00 | 75 | 971.2 |
| 20260505060035 | 17 | 212 | 0.0 | 4.8 | 0.00 | 0.00 | 0.00 | 75 | 971.4 |
| 20260505054533 | 17 | 190 | 1.6 | 6.4 | 0.00 | 0.00 | 0.00 | 75 | 971.1 |
| 20260505053032 | 17 | 141 | 3.2 | 6.4 | 0.00 | 0.00 | 0.00 | 75 | 970.9 |
| 20260505051529 | 18 | 144 | 0.0 | 4.8 | 0.00 | 0.00 | 0.00 | 74 | 971.1 |
| 20260505041530 | 19 | 197 | 0.0 | 11.3 | 0.00 | 0.00 | 0.00 | 70 | 971.7 |
| 20260505040022 | 19 | 159 | 3.2 | 12.9 | 0.00 | 0.00 | 0.00 | 69 | 971.7 |
| 20260505034521 | 19 | 155 | 1.6 | 12.9 | 0.00 | 0.00 | 0.00 | 68 | 971.9 |
| 20260505033020 | 20 | 146 | 1.6 | 6.4 | 0.00 | 0.00 | 0.00 | 67 | 972.1 |
| 20260505031517 | 20 | 160 | 3.2 | 11.3 | 0.00 | 0.00 | 0.00 | 67 | 972.0 |
| 20260505030014 | 20 | 171 | 1.6 | 6.4 | 0.00 | 0.00 | 0.00 | 66 | 971.9 |
| 20260505024532 | 20 | 222 | 3.2 | 8.0 | 0.00 | 0.00 | 0.00 | 66 | 971.8 |
| 20260505023012 | 20 | 215 | 3.2 | 9.7 | 0.00 | 0.00 | 0.00 | 65 | 971.6 |
| 20260505021512 | 21 | 242 | 0.0 | 8.0 | 0.00 | 0.00 | 0.00 | 64 | 971.4 |
| 20260505020011 | 21 | 225 | 1.6 | 6.4 | 0.00 | 0.00 | 0.00 | 62 | 971.1 |
| 20260505014512 | 21 | 165 | 1.6 | 4.8 | 0.00 | 0.00 | 0.00 | 61 | 970.9 |
| 20260505013018 | 22 | 231 | 1.6 | 4.8 | 0.00 | 0.00 | 0.00 | 60 | 970.7 |
| 20260505011509 | 22 | 252 | 1.6 | 4.8 | 0.00 | 0.00 | 0.00 | 59 | 970.5 |
| 20260505010009 | 22 | 219 | 3.2 | 8.0 | 0.00 | 0.00 | 0.00 | 58 | 970.3 |
| 20260505004507 | 23 | 230 | 3.2 | 12.9 | 0.00 | 0.00 | 0.00 | 57 | 970.0 |
| 20260505003008 | 23 | 161 | 1.6 | 8.0 | 0.00 | 0.00 | 0.00 | 56 | 970.0 |
| 20260505001507 | 23 | 213 | 3.2 | 11.3 | 0.00 | 0.00 | 0.00 | 55 | 969.9 |
| 20260505000013 | 24 | 221 | 4.8 | 14.5 | 0.00 | 0.00 | 0.00 | 53 | 969.8 |
| 20260504234507 | 24 | 267 | 9.7 | 22.5 | 0.00 | 0.00 | 0.00 | 52 | 969.7 |
| 20260504233004 | 25 | 200 | 9.7 | 20.9 | 0.00 | 0.00 | 0.00 | 52 | 970.0 |
| 20260504231508 | 25 | 210 | 6.4 | 27.4 | 0.00 | 0.00 | 0.00 | 51 | 970.2 |
| 20260504230001 | 25 | 205 | 12.9 | 22.5 | 0.00 | 0.00 | 0.00 | 49 | 970.1 |
| 20260504224603 | 25 | 227 | 9.7 | 33.8 | 0.00 | 0.00 | 0.00 | 48 | 970.2 |
| 20260504223059 | 26 | 223 | 16.1 | 30.6 | 0.00 | 0.00 | 0.00 | 47 | 970.3 |
| 20260504221608 | 26 | 284 | 14.5 | 29.0 | 0.00 | 0.00 | 0.00 | 46 | 970.3 |
| 20260504220058 | 26 | 227 | 16.1 | 25.7 | 0.00 | 0.00 | 0.00 | 46 | 970.3 |
| 20260504214558 | 26 | 197 | 12.9 | 25.7 | 0.00 | 0.00 | 0.00 | 45 | 970.3 |
| 20260504213055 | 26 | 207 | 8.0 | 25.7 | 0.00 | 0.00 | 0.00 | 47 | 970.4 |
| 20260504211554 | 26 | 205 | 12.9 | 35.4 | 0.00 | 0.00 | 0.00 | 45 | 970.5 |
| 20260504210106 | 26 | 196 | 8.0 | 32.2 | 0.00 | 0.00 | 0.00 | 46 | 970.6 |
| 20260504204600 | 26 | 231 | 14.5 | 32.2 | 0.00 | 0.00 | 0.00 | 45 | 970.8 |
| 20260504203050 | 26 | 232 | 19.3 | 38.6 | 0.00 | 0.00 | 0.00 | 45 | 970.9 |
| 20260504201550 | 26 | 197 | 20.9 | 35.4 | 0.00 | 0.00 | 0.00 | 46 | 971.1 |
| 20260504200047 | 26 | 258 | 17.7 | 35.4 | 0.00 | 0.00 | 0.00 | 46 | 971.2 |
| 20260504194601 | 26 | 247 | 20.9 | 33.8 | 0.00 | 0.00 | 0.00 | 46 | 971.3 |
| 20260504193041 | 26 | 165 | 14.5 | 37.0 | 0.00 | 0.00 | 0.00 | 48 | 971.6 |
| 20260504191547 | 26 | 220 | 9.7 | 37.0 | 0.00 | 0.00 | 0.00 | 49 | 971.8 |
| 20260504190050 | 25 | 261 | 17.7 | 37.0 | 0.00 | 0.00 | 0.00 | 47 | 971.8 |
| 20260504184540 | 25 | 147 | 16.1 | 33.8 | 0.00 | 0.00 | 0.00 | 48 | 971.8 |
| 20260504183034 | 25 | 227 | 17.7 | 29.0 | 0.00 | 0.00 | 0.00 | 48 | 972.1 |
| 20260504181539 | 25 | 291 | 12.9 | 40.2 | 0.00 | 0.00 | 0.00 | 49 | 972.1 |
| 20260504180045 | 25 | 265 | 14.5 | 33.8 | 0.00 | 0.00 | 0.00 | 49 | 972.2 |
| 20260504174530 | 25 | 272 | 16.1 | 32.2 | 0.00 | 0.00 | 0.00 | 49 | 972.3 |
| 20260504173032 | 25 | 280 | 14.5 | 38.6 | 0.00 | 0.00 | 0.00 | 49 | 972.3 |
| 20260504171527 | 25 | 259 | 11.3 | 30.6 | 0.00 | 0.00 | 0.00 | 49 | 972.5 |